This demonstration page uses our WeatherBlox Daily Observations layout. Learn more.

Left ArrowRight Arrow

Hourly Observations for March 25, 2020

Temp ( °F °C ) Dew Point ( °F °C ) Humidity (%) Winds ( mph kmh ) Pressure ( in mb ) Visibility ( mi km ) Precip ( " mm )
12:56 am 00:56 Clear 46 7.9 44 6.7 92 92 SSE 7 11 29.87 1012 10 16 0.00 0.00
1:56 am 01:56 Clear 43 6.3 42 5.4 94 94 SSE 6 9 29.86 1011 10 16 0.00 0.00
2:56 am 02:56 Mostly Cloudy 44 6.8 43 6.1 95 95 SE 8 13 29.84 1011 9 14 0.00 0.00
3:04 am 03:04 Cloudy 45 7 43 6 93 93 ESE 7 11 29.84 1011 7 11 0.00 0.00
3:34 am 03:34 Cloudy 46 8 45 7 93 93 SSE 7 11 29.84 1011 9 14 0.00 0.00
3:49 am 03:49 Cloudy 46 8 45 7 93 93 SSE 10 17 29.83 1010 10 16 0.00 0.00
3:56 am 03:56 Cloudy 47 8.2 45 7.3 94 94 SSE 9 15 29.84 1011 9 14 0.00 0.00
4:26 am 04:26 Cloudy 48 9 46 8 94 94 SSE 13 20 29.83 1010 7 11 0.00 0.00
4:41 am 04:41 Cloudy with Mist and Fog 48 9 46 8 94 94 SSE 12 19 29.82 1010 5 8 0.00 0.00
4:56 am 04:56 Cloudy with Mist and Fog 47 8.5 46 7.7 95 95 SSE 9 15 29.82 1010 5 8 0.00 0.00
5:56 am 05:56 Cloudy with Mist and Fog 48 8.7 46 7.8 94 94 SSE 12 19 29.81 1009 6 10 0.00 0.00
6:56 am 06:56 Cloudy with Mist and Fog 48 8.8 46 7.9 94 94 SSE 9 15 29.82 1010 6 10 0.00 0.00
7:11 am 07:11 Cloudy 48 9 46 8 94 94 SSE 12 19 29.82 1010 8 13 0.00 0.00
7:56 am 07:56 Cloudy with Mist and Fog 48 9 47 8.2 95 95 SSE 10 17 29.81 1010 5 8 0.00 0.00
8:12 am 08:12 Cloudy with Mist and Fog 48 9 46 8 94 94 SSE 8 13 29.82 1010 5 8 0.00 0.00
8:31 am 08:31 Cloudy with Fog 48 9 46 8 94 94 SE 8 13 29.82 1010 1 1 0.00 0.00
8:42 am 08:42 Cloudy with Fog 48 9 46 8 94 94 SE 8 13 29.82 1010 3 5 0.00 0.00
8:56 am 08:56 Cloudy with Fog 48 8.8 47 8.3 97 97 SE 7 11 29.82 1010 3 5 0.00 0.00
9:02 am 09:02 Cloudy with Mist and Fog 48 9 46 8 94 94 SSE 8 13 29.82 1010 1 1 0.00 0.00
9:08 am 09:08 Cloudy with Mist and Fog 48 9 46 8 94 94 SSE 8 13 29.82 1010 1 1 0.00 0.00
9:20 am 09:20 Cloudy with Mist and Fog 48 9 46 8 94 94 SSE 8 13 29.82 1010 1 2 0.00 0.00
9:35 am 09:35 Cloudy with Mist and Fog 48 9 46 8 94 94 SSE 9 15 29.82 1010 2 3 0.00 0.00
9:50 am 09:50 Cloudy with Mist and Fog 48 9 48 9 100 100 SSE 9 15 29.82 1010 3 4 0.00 0.00
9:56 am 09:56 Cloudy with Mist and Fog 48 9 47 8.5 97 97 SSE 10 17 29.82 1010 3 5 0.00 0.00
10:28 am 10:28 Cloudy with Mist and Fog 48 9 46 8 94 94 SE 10 17 29.82 1010 7 11 0.00 0.00
10:56 am 10:56 Cloudy with Mist and Fog 48 8.9 47 8.4 97 97 SE 10 17 29.81 1009 5 8 0.00 0.00
11:05 am 11:05 Cloudy with Mist and Fog 48 9 48 9 100 100 SE 9 15 29.81 1009 7 11 0.00 0.00
11:09 am 11:09 Cloudy with Mist and Fog 48 9 48 9 100 100 SE 9 15 29.82 1010 2 2 0.00 0.00
11:24 am 11:24 Cloudy with Mist and Fog 48 9 48 9 100 100 SSE 12 19 29.80 1009 3 4 0.00 0.00
11:39 am 11:39 Cloudy with Mist and Fog 48 9 48 9 100 100 SE 14 22 29.79 1009 5 8 0.00 0.00
11:56 am 11:56 Cloudy with Mist and Fog 49 9.4 48 8.8 96 96 SE 12 19 29.79 1009 5 8 0.00 0.00
12:11 pm 12:11 Cloudy with Mist and Fog 50 10 48 9 94 94 SE 13 20 29.78 1009 2 4 0.00 0.00
12:26 pm 12:26 Cloudy with Mist and Fog 50 10 48 9 94 94 SE 14 22 29.77 1008 5 8 0.00 0.00
12:56 pm 12:56 Cloudy 52 11 48 9 88 88 SE 15 24 29.74 1007 10 16 0.00 0.00
1:56 pm 13:56 Cloudy 54 12 49 9.7 86 86 SE 14 22 29.73 1007 10 16 0.00 0.00
2:11 pm 14:11 Cloudy 54 12 50 10 88 88 SE 15 24 29.73 1007 10 16 0.00 0.00
2:26 pm 14:26 Cloudy 55 13 50 10 82 82 SSE 15 24 29.72 1006 10 16 0.00 0.00
2:41 pm 14:41 Cloudy 55 13 50 10 82 82 SE 13 20 29.73 1007 10 16 0.00 0.00
2:56 pm 14:56 Cloudy 55 12.8 50 9.8 82 82 SE 12 19 29.72 1006 10 16 0.00 0.00
3:11 pm 15:11 Cloudy 57 14 50 10 77 77 SE 14 22 29.70 1006 10 16 0.00 0.00
3:56 pm 15:56 Sunny 60 15.4 51 10.6 73 73 SE 14 22 29.67 1005 10 16 0.00 0.00
4:56 pm 16:56 Sunny 61 16.1 52 11 72 72 SE 12 19 29.67 1005 10 16 0.00 0.00
5:56 pm 17:56 Sunny 64 17.5 53 11.7 69 69 ESE 8 13 29.65 1004 10 16 0.00 0.00
8:56 pm 20:56 Mostly Cloudy 57 14 50 10 77 77 N 13 20 29.75 1007 10 16 0.00 0.00
9:56 pm 21:56 Clear 55 12.6 49 9.6 82 82 N 10 17 29.78 1008 10 16 0.00 0.00
10:56 pm 22:56 Cloudy 50 10.1 47 8.5 90 90 N 16 26 29.79 1009 10 16 0.00 0.00
11:26 pm 23:26 Cloudy 50 10 46 8 88 88 N 8 13 29.77 1008 10 16 0.00 0.00

Powered by AerisWeather